Torna al catalogo

FENGYUN 1C DEB

AttivoPO
NORAD 29881·DEBRIS·🇨🇳 China

Lanciato May 10, 1999 da Taiyuan Satellite Launch Center

Loading…

Prossimi Passaggi (prossime 24 ore)

TLE

AggiornatoSource: Space-Track

Epoca: Sep 13, 2026, 19:53 UTC

1 29881U 99025GB  26256.82869606  .00001788  00000-0  18280-2 0  9994
2 29881  98.7320 204.7505 0291617  74.1563 342.3228 13.60532590969747

Traccia FENGYUN 1C DEB in tempo reale con AllMySat

Download on the App Store